This is the latest recevied weather packets stored in our database for station/object N3EDS. If no packets are shown the sender has not sent any weather packets the latest 10 day(s).
| Time | Temp. | Humidity | Pressure | Rain* | Wind** | Luminosity | Snow |
|---|---|---|---|---|---|---|---|
| 1777867719 | 4.44° C | 75% | 1014.9 hPa | 0 mm | - | 0 W/m² | - |
| 1777867417 | 4.44° C | 75% | 1014.9 hPa | 0 mm | - | 0 W/m² | - |
| 1777867112 | 3.89° C | 76% | 1014.8 hPa | 0 mm | - | 0 W/m² | - |
| 1777866811 | 3.89° C | 75% | 1015 hPa | 0 mm | - | 0 W/m² | - |
| 1777866507 | 3.89° C | 73% | 1015 hPa | 0 mm | - | 0 W/m² | - |
| 1777866205 | 4.44° C | 73% | 1015.2 hPa | 0 mm | - | 0 W/m² | - |
| 1777865901 | 4.44° C | 75% | 1014.9 hPa | 0 mm | - | 0 W/m² | - |
| 1777865600 | 4.44° C | 77% | 1015.3 hPa | 0 mm | - | 0 W/m² | - |
| 1777865296 | 4.44° C | 74% | 1015.2 hPa | 0 mm | - | 0 W/m² | - |
| 1777864993 | 4.44° C | 76% | 1015.3 hPa | 0 mm | - | 0 W/m² | - |
| 1777864690 | 4.44° C | 74% | 1015 hPa | 0 mm | - | 0 W/m² | - |
| 1777864387 | 4.44° C | 73% | 1015.3 hPa | 0 mm | - | 0 W/m² | - |
| 1777864083 | 4.44° C | 72% | 1015.4 hPa | 0 mm | - | 0 W/m² | - |
| 1777863781 | 4.44° C | 70% | 1015.3 hPa | 0 mm | - | 0 W/m² | - |
| 1777863476 | 4.44° C | 71% | 1014.8 hPa | 0 mm | - | 0 W/m² | - |
| 1777863174 | 4.44° C | 70% | 1015.2 hPa | 0 mm | - | 0 W/m² | - |
| 1777862870 | 4.44° C | 69% | 1015.3 hPa | 0 mm | - | 0 W/m² | - |
| 1777862567 | 4.44° C | 70% | 1015.4 hPa | 0 mm | - | 0 W/m² | - |
| 1777862264 | 4.44° C | 70% | 1015.3 hPa | 0 mm | - | 0 W/m² | - |
| 1777861960 | 5° C | 71% | 1015.3 hPa | 0 mm | - | 0 W/m² | - |
| 1777861656 | 5° C | 70% | 1015.2 hPa | 0 mm | - | 0 W/m² | - |
| 1777861353 | 5° C | 71% | 1015.3 hPa | 0 mm | - | 0 W/m² | - |
| 1777861050 | 5.56° C | 71% | 1015.3 hPa | 0 mm | - | 0 W/m² | - |
| 1777860747 | 5° C | 68% | 1015.3 hPa | 0 mm | - | 0 W/m² | - |
| 1777860444 | 5° C | 69% | 1015.2 hPa | 0 mm | - | 0 W/m² | - |
* Rain latest hour (hover to see other rain measurements)
** Current wind speed in m/s (hover to see current wind gust speed)